TimeEDT,TemperatureF,Dew PointF,Humidity,Sea Level PressureIn,VisibilityMPH,Wind Direction,Wind SpeedMPH,Gust SpeedMPH,PrecipitationIn,Events,Conditions,WindDirDegrees,DateUTC
12:54 AM,37.0,30.0,76,30.21,10.0,Calm,Calm,-,N/A,,Clear,0,2014-04-07 04:54:00
1:54 AM,36.0,30.0,79,30.19,10.0,Calm,Calm,-,N/A,,Clear,0,2014-04-07 05:54:00
2:54 AM,36.0,30.0,79,30.18,10.0,Calm,Calm,-,N/A,,Clear,0,2014-04-07 06:54:00
3:54 AM,36.0,30.9,82,30.17,10.0,Calm,Calm,-,N/A,,Clear,0,2014-04-07 07:54:00
4:54 AM,37.0,32.0,82,30.14,10.0,ENE,3.5,-,N/A,,Clear,70,2014-04-07 08:54:00
5:54 AM,39.0,34.0,82,30.14,10.0,East,3.5,-,N/A,,Scattered Clouds,100,2014-04-07 09:54:00
6:54 AM,42.1,35.1,76,30.14,10.0,East,4.6,-,N/A,,Overcast,90,2014-04-07 10:54:00
7:54 AM,44.1,37.0,76,30.17,10.0,ENE,3.5,-,N/A,,Overcast,70,2014-04-07 11:54:00
8:54 AM,46.0,39.0,76,30.14,10.0,East,8.1,-,0.00,Rain,Light Rain,90,2014-04-07 12:54:00
9:54 AM,48.0,41.0,77,30.13,10.0,East,9.2,-,0.00,Rain,Light Rain,100,2014-04-07 13:54:00
10:54 AM,50.0,43.0,77,30.11,10.0,East,9.2,-,0.01,Rain,Light Rain,100,2014-04-07 14:54:00
11:54 AM,52.0,46.0,80,30.07,9.0,East,10.4,-,0.02,Rain,Light Rain,100,2014-04-07 15:54:00
12:54 PM,53.1,50.0,89,30.04,7.0,ESE,13.8,-,0.02,Rain,Light Rain,110,2014-04-07 16:54:00
1:40 PM,53.1,51.1,93,29.99,5.0,ESE,13.8,-,0.05,Rain,Light Rain,120,2014-04-07 17:40:00
1:54 PM,53.1,51.1,93,29.98,3.0,ESE,15.0,-,0.08,Rain,Rain,120,2014-04-07 17:54:00
2:22 PM,53.1,50.0,89,29.95,4.0,ESE,10.4,-,0.04,Rain,Rain,120,2014-04-07 18:22:00
2:39 PM,53.1,50.0,89,29.94,3.0,ESE,13.8,-,0.09,Rain,Rain,120,2014-04-07 18:39:00
2:41 PM,52.0,50.0,93,29.94,2.5,ESE,11.5,-,0.10,Rain,Rain,120,2014-04-07 18:41:00
2:48 PM,53.6,50.0,88,29.93,3.0,ESE,16.1,-,0.12,Rain,Rain,120,2014-04-07 18:48:00
2:54 PM,53.1,51.1,93,29.91,3.0,ESE,19.6,-,0.13,Rain,Rain,110,2014-04-07 18:54:00
3:00 PM,53.1,51.1,93,29.90,4.0,ESE,18.4,-,0.01,Rain,Rain,110,2014-04-07 19:00:00
4:54 PM,55.9,54.0,93,29.80,3.0,SE,15.0,23.0,0.02,Rain,Rain,140,2014-04-07 20:54:00
5:13 PM,55.9,54.0,93,29.79,8.0,SE,17.3,26.5,0.00,Rain,Light Rain,130,2014-04-07 21:13:00
5:54 PM,55.9,54.0,93,29.76,10.0,SE,15.0,-,0.00,,Overcast,130,2014-04-07 21:54:00
6:54 PM,57.0,55.0,93,29.72,10.0,SE,10.4,-,N/A,,Overcast,140,2014-04-07 22:54:00
7:16 PM,57.9,55.9,93,29.73,10.0,South,8.1,-,N/A,,Overcast,170,2014-04-07 23:16:00
7:54 PM,57.9,57.0,97,29.73,10.0,SSW,8.1,-,N/A,,Overcast,210,2014-04-07 23:54:00
8:49 PM,59.0,57.2,94,29.72,10.0,South,6.9,-,N/A,,Scattered Clouds,190,2014-04-08 00:49:00
8:54 PM,59.0,57.0,93,29.72,10.0,South,5.8,-,N/A,,Partly Cloudy,190,2014-04-08 00:54:00
9:54 PM,60.1,57.0,90,29.73,10.0,SW,6.9,-,N/A,,Scattered Clouds,220,2014-04-08 01:54:00
10:54 PM,59.0,57.0,93,29.70,8.0,South,4.6,-,N/A,,Overcast,190,2014-04-08 02:54:00
11:54 PM,59.0,57.0,93,29.68,9.0,Calm,Calm,-,N/A,,Overcast,0,2014-04-08 03:54:00